Weather History for Coldwater, MI

Change the Weather History Date:

Saturday, January 5, 2013

  Actual Average (KJYM) Record (KJYM)
Temperature  
Mean Temperature 26 °F -  
Max Temperature 35 °F 31 °F 53 °F (1993)
Min Temperature 18 °F 12 °F -14 °F (1999)
Degree Days  
Heating Degree Days 38    
Moisture  
Dew Point 23 °F    
Average Humidity 82    
Maximum Humidity 92    
Minimum Humidity 65    
Precipitation  
Precipitation 0.00 in - - ()
Sea Level Pressure  
Sea Level Pressure 30.14 in    
Wind  
Wind Speed 7 mph (SW)    
Max Wind Speed 14 mph    
Max Gust Speed 18 mph    
Visibility 7 miles    
Events Snow    
Averages and records for this station are not official NWS values.
T = Trace of Precipitation, MM = Missing Value Source: NWS Daily Summary

Daily Weather History Graph

Daily Weather History Graph

Search for Another Location

Airport:

Trip Planner

Search our weather history database for the weather conditions in past years. The results will help you decide how hot, cold, wet, or windy it might be!

Date:

Astronomy

Jan. 05, 2013 Rise Set
Actual Time 8:08 AM EST 5:23 PM EST
Civil Twilight 7:36 AM EST 5:55 PM EST
Nautical Twilight 7:01 AM EST 6:29 PM EST
Astronomical Twilight 6:28 AM EST 7:03 PM EST
Moon 1:10 AM EST (1/5) 12:15 PM EST (1/5)
Length of Visible Light 10h 18m
Length of Day
9h 15m
Last Quarter, 44% of the Moon is Illuminated
Jan 5
Last Quarter
Jan 11
New
Jan 18
First Quarter
Jan 26
Full
Feb 3
Last Quarter

Hourly Weather History & Observations

Time (EST) Temp. Windchill Dew Point Humidity Pressure Visibility Wind Dir Wind Speed Gust Speed Precip Events Conditions
12:15 AM 23.7 °F 14.0 °F 19.4 °F 84% 30.19 in 7.0 mi WSW 9.2 mph - N/A   Clear
12:34 AM 23.7 °F 14.0 °F 19.4 °F 84% 30.19 in 7.0 mi WSW 9.2 mph - N/A   Clear
12:54 AM 23.4 °F 13.5 °F 19.4 °F 85% 30.19 in 7.0 mi WSW 9.2 mph - N/A   Clear
1:15 AM 22.5 °F 14.1 °F 18.7 °F 85% 30.19 in 7.0 mi SW 6.9 mph - N/A   Clear
1:34 AM 22.6 °F 13.4 °F 18.9 °F 85% 30.20 in 7.0 mi WSW 8.1 mph - N/A   Clear
1:55 AM 21.9 °F 13.4 °F 18.3 °F 86% 30.20 in 7.0 mi SW 6.9 mph - N/A   Clear
2:15 AM 22.1 °F 11.3 °F 18.5 °F 86% 30.21 in 7.0 mi WSW 10.4 mph - N/A   Clear
2:34 AM 22.3 °F 13.9 °F 18.5 °F 85% 30.22 in 7.0 mi WSW 6.9 mph - N/A   Mostly Cloudy
2:55 AM 22.1 °F 14.7 °F 18.3 °F 85% 30.22 in 7.0 mi SW 5.8 mph - N/A   Overcast
3:15 AM 20.8 °F - 17.6 °F 87% 30.21 in 7.0 mi Calm Calm - N/A   Mostly Cloudy
3:34 AM 19.9 °F 14.9 °F 17.2 °F 89% 30.21 in 7.0 mi SW 3.5 mph - N/A   Scattered Clouds
3:55 AM 18.5 °F 13.3 °F 16.0 °F 90% 30.22 in 7.0 mi SW 3.5 mph - N/A   Clear
4:15 AM 18.7 °F - 16.5 °F 91% 30.22 in 7.0 mi Calm Calm - N/A   Clear
4:34 AM 18.7 °F 9.5 °F 16.2 °F 90% 30.24 in 7.0 mi SW 6.9 mph - N/A   Clear
4:55 AM 19.8 °F 10.8 °F 17.1 °F 89% 30.23 in 7.0 mi SW 6.9 mph - N/A   Clear
5:15 AM 19.0 °F 12.3 °F 16.3 °F 89% 30.22 in 7.0 mi SSW 4.6 mph - N/A   Clear
5:34 AM 18.3 °F 10.2 °F 15.8 °F 90% 30.23 in 7.0 mi SW 5.8 mph - N/A   Scattered Clouds
5:55 AM 22.1 °F 12.8 °F 19.2 °F 89% 30.23 in 7.0 mi SW 8.1 mph - N/A   Mostly Cloudy
6:14 AM 23.0 °F 13.9 °F 19.4 °F 86% 30.23 in 7.0 mi SW 8.1 mph - N/A   Overcast
6:34 AM 23.4 °F 17.4 °F 19.8 °F 86% 30.23 in 7.0 mi SW 4.6 mph - N/A   Overcast
6:55 AM 23.4 °F 18.9 °F 20.1 °F 87% 30.22 in 7.0 mi SSW 3.5 mph - N/A   Overcast
7:14 AM 23.5 °F 19.1 °F 20.1 °F 87% 30.22 in 7.0 mi SSW 3.5 mph - N/A   Overcast
7:34 AM 23.7 °F 17.8 °F 20.1 °F 86% 30.22 in 7.0 mi SW 4.6 mph - N/A   Overcast
7:54 AM 22.6 °F 15.3 °F 19.0 °F 86% 30.22 in 7.0 mi SSW 5.8 mph - N/A   Mostly Cloudy
8:35 AM 21.0 °F - 18.1 °F 89% 30.22 in 5.0 mi Calm Calm - N/A   Clear
8:54 AM 22.1 °F - 18.5 °F 86% 30.22 in 5.0 mi Calm Calm - N/A   Clear
9:14 AM 21.9 °F 17.2 °F 18.1 °F 85% 30.21 in 5.0 mi SE 3.5 mph - N/A   Clear
9:35 AM 23.0 °F 17.0 °F 18.7 °F 84% 30.21 in 5.0 mi SSE 4.6 mph - N/A   Clear
9:54 AM 25.5 °F 19.9 °F 19.8 °F 79% 30.22 in 5.0 mi SSW 4.6 mph - N/A   Haze
10:14 AM 26.2 °F 18.6 °F 19.9 °F 77% 30.22 in 5.0 mi South 6.9 mph - N/A   Haze
10:54 AM 28.0 °F 20.0 °F 20.7 °F 74% 30.23 in 7.0 mi SSW 8.1 mph - N/A   Clear
11:15 AM 28.4 °F 19.1 °F 20.8 °F 73% 30.22 in 7.0 mi SSW 10.4 mph - N/A   Clear
11:54 AM 30.2 °F 25.4 °F 21.6 °F 70% 30.19 in 7.0 mi SSW 4.6 mph - N/A   Clear
12:15 PM 31.1 °F 25.4 °F 21.7 °F 68% 30.18 in 7.0 mi SSW 5.8 mph - N/A   Clear
12:54 PM 32.2 °F 25.0 °F 22.6 °F 68% 30.16 in 7.0 mi SW 8.1 mph - N/A   Clear
1:15 PM 32.9 °F 24.7 °F 23.0 °F 67% 30.14 in 7.0 mi SSW 10.4 mph - N/A   Clear
1:35 PM 32.9 °F 27.5 °F 23.2 °F 67% 30.13 in 10.0 mi SSW 5.8 mph - N/A   Clear
1:54 PM 33.8 °F 27.0 °F 23.9 °F 67% 30.11 in 10.0 mi SSW 8.1 mph - N/A   Clear
2:15 PM 34.7 °F 28.8 °F 24.1 °F 65% 30.11 in 10.0 mi SW 6.9 mph - N/A   Clear
2:34 PM 34.9 °F 30.8 °F 24.4 °F 66% 30.08 in 10.0 mi SSW 4.6 mph - N/A   Clear
2:54 PM 35.1 °F 26.9 °F 24.3 °F 65% 30.09 in 10.0 mi SW 11.5 mph 16.1 mph N/A   Scattered Clouds
3:15 PM 34.7 °F 25.9 °F 23.9 °F 65% 30.09 in 10.0 mi SW 12.7 mph 16.1 mph N/A   Scattered Clouds
3:34 PM 34.2 °F 27.5 °F 24.4 °F 68% 30.08 in 10.0 mi SSW 8.1 mph - N/A   Clear
3:54 PM 33.8 °F 25.8 °F 24.1 °F 68% 30.09 in 10.0 mi SW 10.4 mph - N/A   Scattered Clouds
4:15 PM 33.4 °F 25.9 °F 24.4 °F 70% 30.07 in 10.0 mi SW 9.2 mph - N/A   Mostly Cloudy
4:34 PM 33.4 °F 28.1 °F 24.6 °F 70% 30.08 in 10.0 mi SW 5.8 mph - N/A   Overcast
4:54 PM 33.1 °F 25.5 °F 24.8 °F 72% 30.08 in 10.0 mi SSW 9.2 mph - N/A   Overcast
5:15 PM 32.9 °F 25.9 °F 24.8 °F 72% 30.07 in 10.0 mi SSW 8.1 mph - N/A   Overcast
6:15 PM 32.9 °F 24.1 °F 25.2 °F 73% 30.08 in 10.0 mi SW 11.5 mph 18.4 mph N/A   Overcast
6:34 PM 32.7 °F 24.5 °F 25.7 °F 75% 30.07 in 7.0 mi SW 10.4 mph - N/A Snow Light Snow
6:55 PM 32.4 °F 24.0 °F 26.8 °F 80% 30.07 in 5.0 mi SW 10.4 mph - N/A Snow Light Snow
7:15 PM 32.0 °F 24.8 °F 28.2 °F 86% 30.07 in 2.5 mi SW 8.1 mph - N/A Snow Light Snow
7:34 PM 31.8 °F 25.4 °F 29.1 °F 90% 30.07 in 1.8 mi SSW 6.9 mph - N/A Snow Light Snow
7:55 PM 31.6 °F 25.1 °F 29.7 °F 92% 30.06 in 2.5 mi SSW 6.9 mph - N/A Snow Light Snow
8:14 PM 31.5 °F 26.8 °F 29.5 °F 92% 30.06 in 3.0 mi SSW 4.6 mph - N/A Snow Light Snow
8:34 PM 31.6 °F 24.4 °F 29.3 °F 91% 30.06 in 5.0 mi SSW 8.1 mph - N/A   Overcast
8:55 PM 32.0 °F 23.6 °F 29.3 °F 90% 30.05 in 5.0 mi SSW 10.4 mph 17.3 mph N/A   Overcast
9:14 PM 32.0 °F 23.6 °F 29.7 °F 91% 30.04 in 5.0 mi SSW 10.4 mph - N/A   Overcast
9:34 PM 32.0 °F 24.8 °F 29.7 °F 91% 30.04 in 5.0 mi SSW 8.1 mph - N/A   Overcast
9:55 PM 32.0 °F 25.6 °F 29.7 °F 91% 30.03 in 5.0 mi SSW 6.9 mph - N/A   Overcast
10:14 PM 32.0 °F 23.0 °F 29.8 °F 92% 30.02 in 5.0 mi SSW 11.5 mph 17.3 mph N/A   Overcast
10:34 PM 32.0 °F 23.6 °F 29.7 °F 91% 30.03 in 5.0 mi SSW 10.4 mph - N/A Snow Light Snow
10:54 PM 32.0 °F 22.1 °F 28.9 °F 88% 30.03 in 7.0 mi SW 13.8 mph - N/A   Overcast
11:14 PM 32.0 °F 23.0 °F 28.8 °F 88% 30.01 in 7.0 mi SSW 11.5 mph 16.1 mph N/A   Overcast
11:35 PM 32.0 °F 22.1 °F 28.8 °F 88% 30.01 in 7.0 mi SSW 13.8 mph - N/A   Overcast
11:54 PM 32.4 °F 23.0 °F 28.4 °F 85% 30.00 in 7.0 mi SW 12.7 mph - N/A   Overcast